TimeCST,TemperatureF,Dew PointF,Humidity,Sea Level PressureIn,VisibilityMPH,Wind Direction,Wind SpeedMPH,Gust SpeedMPH,PrecipitationIn,Events,Conditions,WindDirDegrees,DateUTC
12:15 AM,-2.2,-11.2,66,29.99,10.0,WNW,4.6,-,N/A,,Overcast,290,2013-02-02 06:15:00
12:35 AM,-2.2,-13.0,60,29.98,10.0,West,4.6,-,N/A,,Overcast,280,2013-02-02 06:35:00
12:55 AM,-2.2,-13.0,60,29.98,10.0,West,3.5,-,N/A,,Overcast,270,2013-02-02 06:55:00
1:15 AM,-4.0,-13.0,65,29.97,10.0,West,4.6,-,N/A,,Overcast,280,2013-02-02 07:15:00
1:35 AM,-4.0,-13.0,65,29.97,10.0,West,5.8,-,N/A,,Overcast,280,2013-02-02 07:35:00
1:55 AM,-4.0,-11.2,71,29.98,10.0,Calm,Calm,-,N/A,,Overcast,0,2013-02-02 07:55:00
2:15 AM,-4.0,-11.2,71,29.98,10.0,WNW,3.5,-,N/A,,Overcast,300,2013-02-02 08:15:00
2:35 AM,-4.0,-11.2,71,29.98,10.0,Calm,Calm,-,N/A,,Overcast,0,2013-02-02 08:35:00
2:55 AM,-4.0,-11.2,71,29.97,10.0,Calm,Calm,-,N/A,,Overcast,0,2013-02-02 08:55:00
3:15 AM,-4.0,-11.2,71,29.97,10.0,Calm,Calm,-,N/A,,Overcast,0,2013-02-02 09:15:00
3:35 AM,-4.0,-11.2,71,29.97,10.0,Calm,Calm,-,N/A,,Overcast,0,2013-02-02 09:35:00
3:55 AM,-4.0,-11.2,71,29.97,10.0,Calm,Calm,-,N/A,,Overcast,0,2013-02-02 09:55:00
4:15 AM,-4.0,-11.2,71,29.97,10.0,Calm,Calm,-,N/A,,Overcast,0,2013-02-02 10:15:00
4:35 AM,-5.8,-11.2,77,29.97,10.0,Calm,Calm,-,N/A,,Overcast,0,2013-02-02 10:35:00
4:55 AM,-5.8,-11.2,77,29.98,10.0,Calm,Calm,-,N/A,,Mostly Cloudy,0,2013-02-02 10:55:00
5:15 AM,-5.8,-13.0,71,29.98,10.0,Calm,Calm,-,N/A,,Scattered Clouds,0,2013-02-02 11:15:00
5:55 AM,-9.4,-14.8,77,29.99,10.0,Calm,Calm,-,N/A,,Clear,0,2013-02-02 11:55:00
6:15 AM,-13.0,-16.6,84,29.99,10.0,Calm,Calm,-,N/A,,Clear,0,2013-02-02 12:15:00
6:35 AM,-13.0,-16.6,84,29.99,10.0,Calm,Calm,-,N/A,,Clear,0,2013-02-02 12:35:00
6:55 AM,-13.0,-16.6,84,29.99,10.0,Calm,Calm,-,N/A,,Clear,0,2013-02-02 12:55:00
7:15 AM,-14.8,-18.4,84,30.00,10.0,Calm,Calm,-,N/A,,Mostly Cloudy,0,2013-02-02 13:15:00
7:35 AM,-14.8,-18.4,84,30.00,10.0,Calm,Calm,-,N/A,,Overcast,0,2013-02-02 13:35:00
7:55 AM,-13.0,-18.4,77,30.01,10.0,Calm,Calm,-,N/A,,Overcast,0,2013-02-02 13:55:00
8:15 AM,-13.0,-18.4,77,30.01,10.0,Calm,Calm,-,N/A,Snow,Light Snow,0,2013-02-02 14:15:00
8:35 AM,-11.2,-16.6,77,30.01,10.0,Calm,Calm,-,N/A,Snow,Light Snow,0,2013-02-02 14:35:00
8:55 AM,-7.6,-13.0,77,30.01,10.0,Calm,Calm,-,N/A,,Clear,0,2013-02-02 14:55:00
9:15 AM,-4.0,-9.4,78,30.01,10.0,NNW,4.6,-,N/A,,Clear,330,2013-02-02 15:15:00
9:35 AM,-2.2,-7.6,78,30.01,10.0,NNW,4.6,-,N/A,,Clear,330,2013-02-02 15:35:00
9:55 AM,1.4,-7.6,66,30.01,10.0,Calm,Calm,-,N/A,,Clear,0,2013-02-02 15:55:00
10:15 AM,3.2,-5.8,66,30.01,10.0,Calm,Calm,-,N/A,,Clear,0,2013-02-02 16:15:00
10:35 AM,5.0,-5.8,61,30.02,10.0,Calm,Calm,-,N/A,,Clear,0,2013-02-02 16:35:00
10:55 AM,5.0,-4.0,66,30.01,10.0,Calm,Calm,-,N/A,,Scattered Clouds,0,2013-02-02 16:55:00
11:15 AM,5.0,-4.0,66,30.01,10.0,NNW,5.8,-,N/A,,Mostly Cloudy,330,2013-02-02 17:15:00
11:35 AM,6.8,-4.0,61,30.00,10.0,NW,4.6,-,N/A,,Scattered Clouds,310,2013-02-02 17:35:00
11:55 AM,6.8,-4.0,61,29.99,10.0,West,3.5,-,N/A,,Mostly Cloudy,270,2013-02-02 17:55:00
12:15 PM,8.6,-4.0,57,29.98,10.0,NNW,9.2,-,N/A,,Mostly Cloudy,330,2013-02-02 18:15:00
12:35 PM,8.6,-4.0,57,29.98,10.0,NW,3.5,-,N/A,,Scattered Clouds,320,2013-02-02 18:35:00
12:55 PM,8.6,-4.0,57,29.98,10.0,NW,4.6,-,N/A,,Scattered Clouds,320,2013-02-02 18:55:00
1:15 PM,8.6,-2.2,62,29.97,10.0,NNW,3.5,-,N/A,,Clear,330,2013-02-02 19:15:00
1:35 PM,10.4,-2.2,57,29.96,10.0,NNW,6.9,-,N/A,,Clear,340,2013-02-02 19:35:00
1:55 PM,8.6,-4.0,57,29.95,10.0,NNW,4.6,-,N/A,,Clear,340,2013-02-02 19:55:00
2:15 PM,10.4,-4.0,52,29.95,10.0,Calm,Calm,-,N/A,,Clear,0,2013-02-02 20:15:00
2:35 PM,10.4,-2.2,57,29.94,10.0,NW,4.6,-,N/A,,Scattered Clouds,310,2013-02-02 20:35:00
2:55 PM,10.4,-4.0,52,29.94,10.0,North,3.5,-,N/A,,Scattered Clouds,350,2013-02-02 20:55:00
3:15 PM,10.4,-2.2,57,29.94,10.0,Calm,Calm,-,N/A,,Scattered Clouds,0,2013-02-02 21:15:00
3:35 PM,10.4,-2.2,57,29.94,10.0,Calm,Calm,-,N/A,,Scattered Clouds,0,2013-02-02 21:35:00
3:55 PM,8.6,-4.0,57,29.94,10.0,Calm,Calm,-,N/A,,Clear,0,2013-02-02 21:55:00
4:15 PM,10.4,-4.0,52,29.94,10.0,Calm,Calm,-,N/A,,Clear,0,2013-02-02 22:15:00
4:35 PM,8.6,-2.2,62,29.94,10.0,SW,3.5,-,N/A,,Clear,230,2013-02-02 22:35:00
4:55 PM,8.6,-0.4,67,29.94,10.0,Calm,Calm,-,N/A,,Clear,0,2013-02-02 22:55:00
5:15 PM,8.6,-0.4,67,29.94,10.0,Calm,Calm,-,N/A,,Scattered Clouds,0,2013-02-02 23:15:00
5:35 PM,5.0,-0.4,78,29.93,10.0,Calm,Calm,-,N/A,,Clear,0,2013-02-02 23:35:00
5:55 PM,3.2,-0.4,85,29.93,10.0,Calm,Calm,-,N/A,,Scattered Clouds,0,2013-02-02 23:55:00
6:15 PM,3.2,-2.2,78,29.92,10.0,Calm,Calm,-,N/A,,Clear,0,2013-02-03 00:15:00
6:35 PM,1.4,-2.2,85,29.91,10.0,Calm,Calm,-,N/A,,Mostly Cloudy,0,2013-02-03 00:35:00
6:55 PM,-0.4,-4.0,85,29.91,10.0,Calm,Calm,-,N/A,,Overcast,0,2013-02-03 00:55:00
7:15 PM,1.4,-4.0,78,29.91,10.0,Calm,Calm,-,N/A,,Mostly Cloudy,0,2013-02-03 01:15:00
7:35 PM,-0.4,-4.0,85,29.91,10.0,Calm,Calm,-,N/A,,Scattered Clouds,0,2013-02-03 01:35:00
7:55 PM,-0.4,-5.8,78,29.91,10.0,Calm,Calm,-,N/A,,Clear,0,2013-02-03 01:55:00
8:15 PM,-0.4,-5.8,78,29.91,10.0,Calm,Calm,-,N/A,,Scattered Clouds,0,2013-02-03 02:15:00
8:35 PM,-2.2,-5.8,85,29.91,10.0,SW,5.8,-,N/A,,Mostly Cloudy,220,2013-02-03 02:35:00
8:55 PM,3.2,-4.0,72,29.89,10.0,Calm,Calm,-,N/A,,Overcast,0,2013-02-03 02:55:00
9:15 PM,3.2,-4.0,72,29.88,10.0,Calm,Calm,-,N/A,,Overcast,0,2013-02-03 03:15:00
9:35 PM,1.4,-4.0,78,29.88,10.0,Calm,Calm,-,N/A,,Mostly Cloudy,0,2013-02-03 03:35:00
9:55 PM,3.2,-4.0,72,29.87,10.0,Calm,Calm,-,N/A,,Mostly Cloudy,0,2013-02-03 03:55:00
10:15 PM,1.4,-4.0,78,29.86,10.0,Calm,Calm,-,N/A,,Scattered Clouds,0,2013-02-03 04:15:00
10:35 PM,3.2,-4.0,72,29.86,10.0,Calm,Calm,-,N/A,,Mostly Cloudy,0,2013-02-03 04:35:00
10:55 PM,3.2,-4.0,72,29.86,10.0,Calm,Calm,-,N/A,,Overcast,0,2013-02-03 04:55:00
11:15 PM,3.2,-4.0,72,29.86,10.0,Calm,Calm,-,N/A,,Overcast,0,2013-02-03 05:15:00
11:35 PM,3.2,-4.0,72,29.85,7.0,SW,3.5,-,N/A,Snow,Light Snow,230,2013-02-03 05:35:00
11:55 PM,3.2,-4.0,72,29.84,10.0,Calm,Calm,-,N/A,Snow,Light Snow,0,2013-02-03 05:55:00